User: anonymous   Login
Location: Seattle
(47.6064°N, 122.3308°W)
Time: 08:55:03
(UTC-07:00)
Language:

Tiros 1 - Orbit

View from above orbital plane
View from above orbital plane
View from above satellite
View from above satellite

Ground track
Ground track

The orbit data is extracted from the following two-line orbital elements,

1 00029U 60002B   21125.30668836 -.00000122  00000-0  12776-4 0  9993
2 00029  48.3795 229.6208 0024079 170.8953 189.2400 14.74425516266033
Epoch (UTC): 05 May 2021 07:21:37
Eccentricity: 0.0024079
inclination: 48.3795°
perigee height: 630 km
apogee height: 664 km
right ascension of ascending node: 229.6208°
argument of perigee: 170.8953°
revolutions per day: 14.74425516
mean anomaly at epoch: 189.2400°
orbit number at epoch: 26603

The dashed part of the orbit path shows where the satellite is in the earth's shadow,  

DLR